STARLINK-35400, 66333

Orbit data source: Space-Track

STARLINK-35400, 66333 is a payload satellite owned by SpaceX/Seattle (US) in LEO that was launched on Thu, 06 Nov 2025 UTC via an FALCON 9 launch vehicle from the Air Force Eastern Test Range (AFETR). Payload-class satellites include a variety of spacecraft equipped with specific instruments for various scientific and technological missions. These include communications satellites like Starlink; space stations such as the ISS; scientific satellites like the Hubble; Earth observation satellites from companies like Planet Labs, Umbra, and HawkEye 360; GPS; miniature CubeSats for education and research; and military/defense satellites.

Loading next visibility...
Identifier
66333, 2025-253Q
Orbit
LEO
Country
Flag of USUS
Related business
Manufacturer
SpaceX/Seattle
Mission
Operational Commercial Communications
Bus & Motor
STARLINK V2MO, Unknown motor
Mass
575 kg wet, ~530 kg dry
Launch date (UTC)
2025-11-06 (7 months ago)
Launch vehicle
FALCON 9
Launch site
Air Force Eastern Test Range (AFETR)
Object type
Payload
Rocket body
Debris
Shape & HBR
Box + 2 Pan, 17.7 m
Radar Cross Section
36.964 m², Large (>1 m²)

Expand to show TLE details & history
Last TLE update: 17 hours ago

TLE from 17 hours ago
0 STARLINK-35400
1 66333U 25253Q   26170.52447615  .00012636  00000-0  46772-3 0  9995
2 66333  43.0001 357.8408 0001302 235.4230 124.6499 15.27594893 35816
Epoch: 2026-06-19T12:35Z
TLE epoch observation values (Epoch: 2026-06-19T12:35:14.739Z)
Latitude
-0.00001°
Longitude
-98.72283°
Altitude
483.288 km
Speed
7.625 km/s
True Right ascension
23h 51m 21s
True Declination
0° 00' 00"
Sunlit
Object was in daylight at epoch
Visualization orbit readout
Latitude
Unknown
Longitude
Unknown
Altitude
Unknown
Speed
Unknown
Apparent Right ascension
Unknown
Apparent Declination
Unknown
Sunlit
N/A
Visualization observer readout
Local Sidereal Time
16:05:05
Azimuth
Unknown
Elevation
Unknown
Doppler factor
Unknown
Orbital elements
Apogee altitude
485.843 km
Perigee altitude
484.056 km
Semi-major axis
6,863.087 km
Eccentricity
0.00013
Inclination
43.0001°
RAAN
357.8408°
Arg. of periapsis
235.423°
True anomaly
124.66217°
Mean anomaly
124.6499°
Eccentric anomaly
124.65604°
Mean motion
3.81737 °/min
Orbital period
94.31 mins
BSTAR
0.00046772
Loading maneuver chart data...
Computing Atmospheric mass density...
Loading historical data...
Loading historical data...
Loading historical data...
Loading historical data...
Loading historical data...
Loading historical data...
Loading historical data...

Documentation

Showing up to 5 results
|